TimeCST,TemperatureF,Dew PointF,Humidity,Sea Level PressureIn,VisibilityMPH,Wind Direction,Wind SpeedMPH,Gust SpeedMPH,PrecipitationIn,Events,Conditions,WindDirDegrees,DateUTC
12:53 AM,-9.0,-13.0,83,30.27,10.0,South,9.2,-,N/A,,Clear,190,2013-01-01 06:53:00
1:53 AM,-11.0,-16.1,78,30.26,10.0,South,9.2,-,N/A,,Clear,190,2013-01-01 07:53:00
2:53 AM,-9.9,-15.0,78,30.26,10.0,South,8.1,-,N/A,,Clear,170,2013-01-01 08:53:00
3:53 AM,-8.0,-13.0,79,30.25,8.0,SSW,5.8,-,N/A,,Scattered Clouds,210,2013-01-01 09:53:00
4:15 AM,-7.6,-11.2,84,30.16,10.0,SSW,5.8,-,N/A,,Mostly Cloudy,200,2013-01-01 10:15:00
4:43 AM,-7.6,-11.2,84,30.14,10.0,South,10.4,-,N/A,,Partly Cloudy,190,2013-01-01 10:43:00
4:53 AM,-5.1,-9.0,83,30.22,10.0,SSW,10.4,-,N/A,,Clear,200,2013-01-01 10:53:00
5:53 AM,-2.9,-8.0,79,30.22,10.0,SSW,9.2,-,0.00,Snow,Light Snow,200,2013-01-01 11:53:00
6:53 AM,-2.0,-6.0,83,30.19,10.0,South,11.5,-,0.00,,Overcast,190,2013-01-01 12:53:00
7:53 AM,-0.0,-4.0,83,30.17,10.0,South,9.2,-,N/A,,Overcast,190,2013-01-01 13:53:00
8:53 AM,3.0,-0.9,84,30.16,10.0,SSW,8.1,-,N/A,,Mostly Cloudy,200,2013-01-01 14:53:00
9:09 AM,1.4,-2.2,85,30.07,10.0,SSW,9.2,-,N/A,,Overcast,200,2013-01-01 15:09:00
9:18 AM,1.4,-2.2,85,30.07,7.0,SSW,9.2,-,N/A,,Overcast,200,2013-01-01 15:18:00
9:26 AM,1.4,-2.2,85,30.06,3.0,SSW,9.2,-,N/A,,Overcast,200,2013-01-01 15:26:00
9:43 AM,1.4,-0.4,92,30.06,0.2,SSW,8.1,-,N/A,Fog,Light Freezing Fog,200,2013-01-01 15:43:00
9:53 AM,3.0,1.0,91,30.15,0.2,SSW,6.9,-,N/A,Fog,Light Freezing Fog,200,2013-01-01 15:53:00
10:22 AM,3.2,1.4,92,30.05,1.5,South,9.2,-,0.00,Snow,Light Snow,190,2013-01-01 16:22:00
10:24 AM,3.2,1.4,92,30.05,2.0,South,9.2,-,0.00,Snow,Light Snow,190,2013-01-01 16:24:00
10:44 AM,5.0,1.4,85,30.05,3.0,South,9.2,-,0.00,,Partly Cloudy,190,2013-01-01 16:44:00
10:53 AM,5.0,1.4,85,30.04,3.0,South,10.4,-,N/A,,Partly Cloudy,190,2013-01-01 16:53:00
11:53 AM,9.0,5.0,84,30.10,7.0,SSW,11.5,-,N/A,,Partly Cloudy,200,2013-01-01 17:53:00
12:23 PM,8.6,5.0,85,30.01,6.0,South,9.2,-,N/A,,Mostly Cloudy,180,2013-01-01 18:23:00
12:37 PM,8.6,6.8,92,30.00,6.0,South,11.5,-,N/A,,Mostly Cloudy,180,2013-01-01 18:37:00
12:53 PM,10.0,6.1,84,30.06,4.0,South,12.7,-,N/A,,Scattered Clouds,190,2013-01-01 18:53:00
1:53 PM,12.0,7.0,80,30.02,10.0,South,12.7,-,N/A,,Partly Cloudy,190,2013-01-01 19:53:00
2:53 PM,14.0,10.0,84,30.00,10.0,South,15.0,-,N/A,,Scattered Clouds,180,2013-01-01 20:53:00
3:53 PM,19.0,12.9,77,29.98,10.0,SSW,13.8,-,N/A,,Mostly Cloudy,200,2013-01-01 21:53:00
4:53 PM,17.1,12.0,81,29.96,10.0,SSW,10.4,-,N/A,,Mostly Cloudy,200,2013-01-01 22:53:00
5:53 PM,15.1,10.9,84,29.95,10.0,South,10.4,-,N/A,,Mostly Cloudy,190,2013-01-01 23:53:00
6:53 PM,15.1,10.9,84,29.94,10.0,SSW,8.1,-,N/A,,Mostly Cloudy,210,2013-01-02 00:53:00
7:53 PM,15.1,10.9,84,29.92,10.0,South,9.2,-,N/A,,Mostly Cloudy,190,2013-01-02 01:53:00
8:53 PM,16.0,12.0,84,29.90,10.0,SSW,8.1,-,N/A,,Overcast,200,2013-01-02 02:53:00
9:38 PM,17.6,12.2,79,29.82,5.0,SSW,9.2,-,0.00,Snow,Light Snow,210,2013-01-02 03:38:00
9:53 PM,18.0,12.9,81,29.88,3.0,SSW,10.4,-,0.00,Snow,Light Snow,210,2013-01-02 03:53:00
10:53 PM,18.0,12.9,81,29.87,8.0,South,12.7,-,0.01,,Overcast,190,2013-01-02 04:53:00
11:16 PM,17.6,14.0,86,29.80,10.0,South,11.5,-,N/A,,Overcast,180,2013-01-02 05:16:00
11:53 PM,18.0,14.0,84,29.86,10.0,South,11.5,-,N/A,,Overcast,180,2013-01-02 05:53:00